Terug naar catalogus

STARLINK-34870

ActiefCommunicatieVLEO
NORAD 65370·PAYLOAD·🇺🇸 United States

Gelanceerd Aug 28, 2025 vanaf Cape Canaveral Space Force Station

Loading…

Volgende Passages (komende 24 uur)

TLE

VersSource: CelesTrak SupGP

Epoch: Sep 14, 2026, 21:42 UTC

1 65370C 25190V   26257.90465278  .00006512  00000+0  19239-3 0  2578
2 65370  53.1596   7.8314 0001298  73.7401 354.9629 15.34388763    14

Volg STARLINK-34870 in realtime met AllMySat

Download on the App Store